Showing default

LEMUR 2 EMERSONROSE, 63261

Orbit data source: Space-Track

LEMUR 2 EMERSONROSE, 63261 is a payload satellite owned by Spire (US) in SSO that was launched on Sat, 15 Mar 2025 UTC via an FALCON 9 launch vehicle from the Air Force Western Test Range (AFWTR). Payload-class satellites include a variety of spacecraft equipped with specific instruments for various scientific and technological missions. These include communications satellites like Starlink; space stations such as the ISS; scientific satellites like the Hubble; Earth observation satellites from companies like Planet Labs, Umbra, and HawkEye 360; GPS; miniature CubeSats for education and research; and military/defense satellites.

Loading next visibility...
Identifier
63261, 2025-052BD
Orbit
SSO
Country
Flag of USUS
Related business
Manufacturer
Spire/Glasgow
Mission
Operational Commercial Com/MetRO
Bus & Motor
CUBESAT 6U, Unknown motor
Mass
10 kg wet, 10 kg dry
Launch date (UTC)
2025-03-15 (1 year ago)
Launch vehicle
FALCON 9
Launch site
Air Force Western Test Range (AFWTR)
Object type
Payload
Rocket body
Debris
Shape & HBR
Box, 0.2 m
Radar Cross Section
0.080 m², Medium (>0.1 m² and < 1m²)

Expand to show TLE details & history
Last TLE update: 5 hours ago

TLE from 5 hours ago
0 LEMUR 2 EMERSONROSE
1 63261U 25052BD  26166.95848045  .00003099  00000-0  26010-3 0  9999
2 63261  97.6890  60.2889 0001796  66.9434 293.1978 14.99072739 68551
Epoch: 2026-06-15T23:00Z
TLE epoch observation values (Epoch: 2026-06-15T23:00:12.710Z)
Latitude
-0.00007°
Longitude
170.99855°
Altitude
572.322 km
Speed
7.575 km/s
True Right ascension
04h 01m 09s
True Declination
0° 00' 00"
Sunlit
Object was in daylight at epoch
Visualization orbit readout
Latitude
Unknown
Longitude
Unknown
Altitude
Unknown
Speed
Unknown
Apparent Right ascension
Unknown
Apparent Declination
Unknown
Sunlit
N/A
Visualization observer readout
Local Sidereal Time
14:48:15
Azimuth
Unknown
Elevation
Unknown
Doppler factor
Unknown
Orbital elements
Apogee altitude
568.013 km
Perigee altitude
565.519 km
Semi-major axis
6,944.903 km
Eccentricity
0.00018
Inclination
97.689°
RAAN
60.2889°
Arg. of periapsis
66.9434°
True anomaly
293.17888°
Mean anomaly
293.1978°
Eccentric anomaly
293.18834°
Mean motion
3.75011 °/min
Orbital period
96 mins
BSTAR
0.0002601
Loading maneuver chart data...
Computing Atmospheric mass density...
Loading historical data...
Loading historical data...
Loading historical data...
Loading historical data...
Loading historical data...
Loading historical data...
Loading historical data...

Documentation

Showing up to 5 results
|